SCP
2 2 2 2 2 2 2 2 2 2 2 2 2 2 3 2 1 1 1 1 1 1 1 2 2 2 2 1 2 2 2 2 2 2 2 2 1 1 1 1 1 1 1
2 2 2 2 2 2 2 2 1 1 2 2 1 2 2 2 1 1 1 1 1 1 1 1 2 2 1 1 1 2 2 2 2 2 2 2 1 1 1 1 1 1 1
1 1 1 1 1 1 1 1 1 1 1 1 1 2 2 2 1 1 1 1 1 1 1 1 2 1 1 1 1 1 1 1 1 1 1 1 1 1 1 1 1 1 1
1 1 1 1 1 1 1 1 1 1 1 1 1 1 2 2 2 1 1 1 1 1 1 1 2 2 1 1 1 1 1 1 1 1 1 1 1 1 2 2 2 1 1
1 1 1 1 1 1 1 1 1 1 1 1 1 1 1 2 2 2 1 1 1 1 1 1 1 1 1 1 1 1 1 1 1 1 1 1 1 1 2 2 2 2 2
1 1 1 1 1 1 1 1 1 1 1 1 2 1 1 2 2 2 2 1 1 1 1 1 1 1 1 2 2 2 1 1 1 1 1 1 1 1 2 2 2 2 2
1 1 0 0 1 1 1 1 1 1 1 1 1 1 1 2 2 2 2 1 1 1 1 1 1 1 1 1 2 1 1 1 1 1 1 2 2 1 2 2 2 2 2
1 1 1 0 0 1 0 1 0 1 1 1 1 1 1 1 2 2 2 1 1 1 1 1 1 1 1 1 1 1 1 1 1 1 2 2 2 2 1 1 2 2 2
1 1 1 1 1 0 0 0 0 1 1 1 1 1 1 1 1 1 1 1 1 1 1 1 1 1 1 1 1 1 1 1 1 1 2 2 2 2 1 1 1 2 2
1 1 1 1 1 1 1 1 1 1 1 1 1 1 1 1 1 1 1 1 1 1 1 1 1 1 1 1 2 1 1 2 2 1 1 2 2 2 1 1 1 1 1
1 1 1 2 2 1 1 1 1 1 1 1 1 1 1 1 1 1 1 1 1 1 1 0 1 1 2 2 2 2 2 2 2 2 1 2 2 1 1 1 1 1 1
1 2 2 3 2 2 2 1 1 1 1 1 1 1 1 1 1 1 1 1 1 0 0 0 1 1 2 3 3 3 2 2 2 2 2 1 1 1 1 1 1 1 1
2 3 3 3 2 2 2 2 2 1 1 1 1 1 1 1 1 1 1 1 0 0 0 0 1 1 2 3 3 3 3 2 2 2 1 1 1 1 1 1 1 1 1
4 4 4 3 2 2 2 2 2 1 1 1 1 1 1 1 1 1 1 1 1 1 0 0 1 2 2 3 2 2 2 2 1 1 1 1 1 1 1 1 1 1 1
5 5 5 3 2 2 3 3 2 2 2 2 1 1 1 1 1 1 1 2 1 1 1 1 1 2 2 3 2 2 1 1 0 0 0 1 1 1 1 1 1 1 1
6 6 5 3 3 3 3 4 3 3 3 2 2 2 2 1 1 2 2 2 2 2 2 1 1 2 2 2 2 1 1 0 0 0 0 0 0 0 0 0 0 0 0
6 5 4 4 4 4 4 4 4 4 4 3 3 3 2 1 2 2 2 3 3 3 2 2 2 2 2 2 2 1 0 0 0 0 0 0 0 0 0 0 0 0 0
6 5 5 4 4 4 5 4 4 4 4 4 4 3 2 1 1 2 2 2 3 3 3 2 2 2 2 2 2 1 1 0 0 0 0 0 0 0 0 0 0 0 0
6 6 5 4 4 4 5 4 4 3 4 4 4 3 2 1 1 1 2 2 2 2 2 2 1 1 2 2 2 1 1 0 0 0 0 0 0 0 0 0 0 0 0
5 5 4 4 4 4 4 4 3 3 3 3 3 2 2 1 1 1 1 1 1 1 1 1 1 1 1 1 2 2 1 1 0 0 0 0 0 0 0 0 0 0 0
3 3 2 2 2 3 3 3 3 2 2 2 2 2 1 1 1 1 1 1 1 1 1 1 1 1 1 1 1 2 1 1 1 0 0 0 0 0 0 0 0 0 0
2 2 2 2 2 2 2 2 2 1 1 1 1 1 1 1 1 1 1 1 1 1 1 1 0 0 1 1 1 1 1 1 1 0 0 0 0 0 0 0 0 0 0
2 2 1 1 1 1 1 1 1 1 1 1 1 1 1 1 1 1 1 1 1 1 1 1 0 0 1 1 1 1 1 1 1 1 0 0 0 0 0 0 0 0 0
2 1 1 1 1 1 0 0 0 0 0 1 1 1 1 1 1 1 1 1 1 1 1 0 0 0 0 1 1 1 1 1 1 1 1 1 1 0 0 0 0 0 0
1 1 1 1 1 1 1 0 0 0 0 0 1 1 1 1 1 1 1 1 1 1 1 0 0 0 0 0 0 1 1 1 1 1 1 2 2 1 0 0 0 0 0
2 1 1 1 1 1 1 0 0 0 0 0 0 1 1 1 1 1 1 1 1 1 1 1 1 0 0 0 0 1 1 1 1 1 1 2 2 1 0 0 0 0 0
Wind_Speed
3 2 2 2 2 2 2 2 2 2 2 2 2 2 2 2 2 2 1 4 4 5 7 8 8 8 7 8 8 9 8 8 8 8 8 8 8 8 7 7 7 7 7
3 3 2 2 2 2 2 2 3 2 1 1 1 2 2 2 2 2 2 2 4 4 6 7 7 7 7 7 8 8 8 8 8 8 8 8 8 7 7 7 7 7 7
3 3 3 2 2 2 2 2 2 1 1 1 1 2 2 2 2 2 2 1 2 4 5 6 6 7 7 7 7 8 8 7 8 8 8 8 8 8 8 8 7 7 7
4 3 3 3 2 2 2 2 2 2 1 1 1 1 1 1 2 2 2 2 2 2 4 6 6 6 7 8 8 8 9 8 8 8 9 9 8 8 8 8 8 7 7
4 3 3 2 2 2 2 2 2 2 2 1 1 1 1 1 2 2 3 3 3 3 2 4 6 6 7 7 8 8 9 9 9 9 9 9 9 9 8 8 8 8 8
3 3 2 2 3 2 1 2 2 2 2 1 1 0 1 1 2 2 3 3 3 4 3 3 3 4 6 6 7 8 9 9 9 10 10 9 9 9 8 8 8 8 8
3 3 2 2 2 2 2 2 2 2 1 1 2 1 2 1 2 2 2 2 3 3 3 4 3 3 3 6 8 8 9 10 10 10 10 10 10 9 9 8 8 8 8
3 4 3 2 2 2 2 2 2 1 1 1 2 1 1 3 2 2 2 2 2 2 3 4 4 4 3 2 4 8 9 9 10 11 10 10 10 9 9 9 9 8 9
3 3 3 3 2 2 2 2 2 3 2 1 2 3 2 2 2 2 2 1 1 1 2 2 4 4 4 3 3 6 8 8 9 9 9 9 9 8 9 9 9 8 8
3 3 3 3 3 2 2 2 3 2 3 1 1 1 2 3 2 1 2 2 2 2 2 2 2 3 3 3 4 6 8 8 9 9 9 9 9 8 8 9 9 9 9
2 3 3 3 2 2 2 2 2 2 2 2 2 1 1 1 1 2 2 2 2 2 2 2 2 2 2 3 3 5 8 8 9 9 9 9 9 8 8 9 9 10 10
1 2 3 2 2 2 2 2 2 2 2 2 2 2 2 2 2 2 2 2 2 2 2 1 1 2 2 2 4 5 7 8 8 8 8 8 9 9 9 9 9 9 9
2 3 2 2 2 2 2 2 2 2 2 2 2 2 2 2 2 2 2 2 2 2 1 1 2 1 2 2 3 5 6 6 6 7 7 8 8 9 9 8 9 8 8
3 3 3 3 2 2 2 2 2 2 2 2 2 2 2 2 2 2 3 2 1 1 1 2 2 1 2 2 3 4 3 5 5 6 6 7 7 8 8 8 7 7 7
3 3 3 3 3 3 2 2 1 2 2 2 2 2 2 2 2 2 2 3 3 2 3 2 2 2 2 1 2 2 2 4 5 5 5 6 6 7 7 7 7 6 6
3 3 4 3 3 2 2 2 1 1 1 1 1 1 1 1 1 1 1 2 2 3 2 2 2 2 2 2 2 2 3 4 5 5 5 6 6 7 7 7 7 6 6
3 3 4 3 3 3 2 2 2 1 1 1 1 0 1 1 0 0 1 1 1 2 2 2 1 1 1 1 1 1 1 1 2 5 5 6 6 6 7 7 7 7 6
3 3 3 3 3 3 2 2 2 2 2 1 1 0 1 1 0 0 1 1 1 2 2 2 2 1 1 2 1 1 1 2 2 4 5 5 5 6 6 7 7 7 7
2 2 3 3 3 2 2 2 2 2 2 2 2 1 1 0 1 1 1 1 1 1 1 2 2 1 1 1 1 2 2 2 2 2 4 5 5 5 6 6 6 7 7
3 3 3 3 3 2 2 2 2 2 2 2 2 2 2 2 2 1 1 1 1 1 1 1 1 1 1 1 0 1 2 2 2 2 2 2 3 4 5 5 6 6 7
4 3 3 2 2 2 2 2 2 2 2 1 1 1 2 2 2 2 1 1 1 1 1 1 1 1 1 1 1 1 1 2 2 1 1 1 1 1 2 4 6 7 7
3 3 3 3 3 2 2 3 2 2 2 2 2 2 2 2 1 1 2 2 3 3 2 2 2 2 3 2 2 1 1 0 2 2 1 2 1 2 3 3 5 6 6
3 3 3 3 3 3 3 3 3 3 3 3 3 2 2 2 2 1 1 1 2 3 3 3 3 4 3 3 3 2 2 2 3 3 1 2 2 3 3 3 6 6 6
3 3 3 3 3 3 4 4 4 3 2 3 3 3 3 3 2 2 2 1 2 2 3 2 3 4 3 3 4 3 3 2 2 2 2 2 2 3 3 3 5 5 6
3 3 3 4 4 4 5 4 4 2 1 2 2 3 3 3 4 3 2 1 2 3 3 3 3 3 4 4 2 1 0 0 2 2 1 2 2 2 2 3 3 5 5
3 3 3 3 4 4 5 5 5 2 2 2 2 2 3 4 4 4 3 3 3 4 2 2 2 3 3 3 3 3 3 2 1 2 2 2 2 0 2 2 2 2 3
Wind_Direction
155 155 155 162 164 165 170 171 180 171 157 159 169 172 174 177 183 197 194 193 203 207 203 202 203 204 205 204 199 198 201 202 199 195 198 202 200 200 200 201 201 203 205
162 161 161 171 179 178 178 173 173 168 169 161 167 170 181 183 180 190 200 205 204 212 213 211 210 209 209 206 203 199 201 200 197 193 196 199 202 202 204 206 206 207 207
165 162 165 178 188 176 163 149 148 142 166 168 170 181 186 191 191 192 194 200 209 218 218 219 216 212 208 206 200 198 201 201 199 198 198 199 202 204 206 209 210 210 209
166 164 165 180 178 160 151 149 154 144 164 172 188 202 192 193 200 201 196 202 204 225 226 225 221 216 213 214 209 206 205 205 204 203 204 203 205 207 207 209 210 210 210
165 160 167 172 159 147 146 165 150 161 169 186 192 193 199 201 203 206 206 216 215 216 220 229 225 221 223 224 222 215 206 206 206 207 210 211 212 212 210 211 212 211 212
156 146 147 150 145 139 145 155 157 163 166 173 167 184 239 236 224 221 223 224 220 216 213 223 224 227 226 230 232 226 215 210 209 211 215 219 219 217 212 213 213 214 214
149 142 144 141 142 149 166 164 145 138 146 126 92 10 333 281 239 239 232 222 227 222 209 215 220 223 229 228 230 229 226 220 216 214 217 220 220 218 215 215 217 215 213
150 148 141 142 145 140 138 145 134 133 167 143 135 104 345 337 321 264 239 218 229 219 219 221 221 222 226 224 223 224 226 227 229 223 218 219 221 219 216 219 221 219 217
142 142 146 141 147 149 163 171 163 153 177 210 163 147 164 234 304 320 295 263 251 233 240 235 226 227 220 218 226 224 220 222 228 229 222 217 216 217 219 220 220 219 220
153 153 152 152 154 154 162 182 178 172 164 199 232 205 186 172 166 294 316 307 281 259 253 248 244 230 219 216 222 219 218 218 219 223 225 220 214 217 221 222 223 224 224
173 166 161 161 165 165 172 180 167 173 178 191 204 206 215 202 172 176 267 301 312 285 259 253 250 239 226 220 227 226 222 220 223 222 223 224 222 221 222 225 227 229 230
199 189 177 174 179 178 181 188 183 182 195 194 200 192 180 183 197 186 214 249 272 283 280 261 245 251 243 226 231 229 222 223 223 224 225 227 227 225 226 228 229 231 235
202 209 179 168 177 188 185 177 182 208 205 199 211 217 212 218 193 180 184 222 251 280 302 289 257 244 252 241 239 235 228 223 223 224 225 227 229 229 228 231 235 236 238
198 191 181 174 176 184 188 186 199 220 221 229 234 222 225 235 209 187 180 178 216 285 290 273 285 257 261 245 252 238 242 226 223 223 221 224 228 229 226 228 233 239 241
188 176 177 179 190 192 191 183 210 231 225 220 222 214 221 237 223 212 187 174 169 213 265 267 268 275 263 239 238 230 232 229 221 223 226 227 229 226 225 226 229 234 235
184 172 179 186 192 193 190 189 214 230 211 227 219 211 246 251 234 207 187 182 166 175 227 263 248 266 263 260 239 231 232 230 224 225 227 227 230 226 222 222 221 224 229
184 183 184 183 190 197 200 197 220 207 201 241 256 200 259 247 230 225 182 173 169 153 194 274 272 288 277 278 299 282 258 235 238 230 232 233 235 233 227 222 221 221 225
183 187 179 177 188 189 187 188 215 209 192 206 239 212 267 250 259 250 183 194 194 175 174 239 283 296 277 267 265 269 271 251 245 242 241 236 237 237 233 231 230 226 224
177 182 172 174 186 193 189 192 197 200 196 203 209 206 232 181 266 248 191 205 211 190 168 188 252 258 271 280 323 299 288 280 271 263 244 241 243 242 240 235 230 227 226
182 192 185 189 191 187 188 195 192 193 201 209 207 201 200 192 214 220 203 213 197 166 166 180 239 268 269 280 180 277 299 293 291 293 272 262 258 252 249 241 234 228 226
190 184 177 187 191 183 197 197 210 201 200 213 220 207 197 186 190 202 198 198 174 175 180 189 234 256 267 283 258 244 264 295 295 278 291 287 270 267 261 250 241 235 230
199 180 186 182 190 203 188 181 184 200 201 206 218 228 222 200 226 226 212 204 187 188 195 200 232 242 249 239 234 234 229 321 294 282 205 279 234 247 252 243 243 239 233
190 188 195 187 199 211 195 192 195 192 203 213 215 215 231 219 213 219 249 271 256 237 203 191 216 237 236 226 210 228 225 216 235 242 179 267 260 260 259 254 242 239 228
185 191 198 198 194 212 207 201 193 192 204 216 214 210 212 227 220 197 209 249 267 271 248 224 221 238 242 232 211 213 221 237 261 266 181 235 259 257 270 262 248 233 232
190 198 196 194 195 218 214 204 184 178 209 238 241 227 208 212 222 191 172 220 268 285 274 250 239 255 258 254 226 162 198 159 283 275 219 204 255 275 279 265 253 239 234
202 204 205 203 201 215 216 207 187 173 200 242 263 264 233 220 224 204 192 200 236 260 273 293 295 299 287 281 259 209 201 204 238 262 234 197 237 231 297 284 266 255 244